STARLINK-32417

Last updated on Thu Nov 21 2024 00:02:04 GMT+0000 (Coordinated Universal Time)

1 61673U 24193N 24324.93392336 -.00016336 00000+0 -27998-3 0 9993 2 61673 53.1599 140.8725 0001355 333.8335 26.2606 15.49932397 4992
UTC large
Height (km)
Speed (km/s)
/
Latitude / Longitude
Inclination (degrees)
Orbital Period (minutes)
Azimuth
Elevation
Range (km)
Doppler Factor

Next 0 passes for location: London (51.5072 / 0.1276)

Sorry there are no passes over London.